Preview of NWS' New Version of Forecast
This preview is not operational and should not be used for support decisions.

Regional Weather Roundup (RWR)

Issued by National Weather Service (NWS)

                            
000
ASCA42 TJSJ 192010
RWRPR 
PUERTO RICO/U.S. VIRGIN ISLANDS HOURLY WEATHER ROUNDUP
NATIONAL WEATHER SERVICE SAN JUAN PR
400 PM AST MON AUG 19 2019

PRZ001>002-007>008-010-192100-
PUERTO RICO
  
CITY           SKY/WX    TMP DP  RH WIND       PRES   REMARKS
SAN JUAN LMM   PTSUNNY   82  79  89 E10       30.01F HX  93           
AGUADILLA      MOSUNNY   73  73 100 E8        30.02S                  
CEIBA          PTSUNNY   84  79  84 NE7       30.02F HX  96           
$$

VIZ001>002-192100-
U.S. VIRGIN ISLANDS
  
CITY           SKY/WX    TMP DP  RH WIND       PRES   REMARKS
CHARLOTTE AMA  MOSUNNY   88  79  74 NE9       30.00F HX 102           
CHRISTIANSTED  SUNNY     88  75  66 E14       30.01F HX  97           
$$

HOURLY WEATHER ROUNDUP FOR THE NEWS MEDIA
  
CITY           SKY/WX    TMP DP  RH WIND       PRES   REMARKS
ORLANDO        LGT RAIN  85  70  60 VRB3      30.07S                  
NEW YORK       FAIR      82  77  84 S15       29.95F HX  90           
NEWARK         PTSUNNY   88  75  65 S8        29.92F THUNDER HX  97   
CHICAGO        PTSUNNY   83  68  60 E8        30.00F                  
HARTFORD       FAIR      85  74  69 SW14      29.92F HX  92           
BOSTON         PTSUNNY   92  68  45 SW17      29.88F HX  96           
DALLAS         MOSUNNY   99  66  33 SE12      29.94F HX 103           
PHILADELPHIA   TSTM      91  75  59 W10       29.94S HX 101           
LOS ANGELES    MOSUNNY   76  61  59 W10       29.96F                  
WASHINGTON DC  PTSUNNY   94  69  44 VRB6      29.98F HX  99